一网星座-0651星 (ONEWEB-0651)

导读

ONEWEB-0651是英国OneWeb公司的近地轨道互联网卫星,于2023年3月26日由印度LVM3火箭搭载发射,同批次共发射36颗卫星,本次任务完成后OneWeb第一代卫星星座组网完毕。卫星重约150公斤,运行在近地轨道,使用Ku波段提供宽带服务,可服务企业、交通与政府领域,助力完成OneWeb全球卫星互联网接入布局。

Basic Information
目录编号:
56080
目录名称:
ONEWEB-0651
国际标识:
2023-043AL
轨道中心:
EARTH
卫星名称:
一网星座-0651星
卫星全名:
一网星座-0651星 (ONEWEB-0651)
卫星状态:
在轨 (已飞行1266 天)
发射日期:
2023-03-26 UTC
国别 :
英国 (GB)
星等 :
--
This satellite is enrolled in the Space Conjunction Data Service (SCDS) and the current flight risk assessment level is: No High Risk
Orbit Information
数据来源 国际轨道数据 AOE轨道数据
星历时间 2026-09-12T05:38:35+0800
8小时前
查看轨道信息
2026-09-10T07:00:00+0800
2天前
查看轨道信息
半长轴 7579.909km 7579.902km
偏心率 0.0002033 0.0002219
轨道倾角 87.897° 87.897°
近地点辐角 93.594° 83.324°
升交点赤经 241.927° 242.314°
平近点角 266.542° 77.901°
近地点 1200.231km 1200.083km
远地点 1203.313km 1203.447km
周期 109.460分钟 109.460分钟
每日圈数 13.155484 13.155503
Detailed Information
平衡模式:
三轴稳定
覆盖范围:
全球
运营商:
一网卫星公司
运营商所在国:
英国
制造商(研发单位):
一网卫星公司
制造商所在国:
英国
使用方式:
暂无
Satellite Introduction
OneWeb卫星网络由648颗重约125公斤的微型卫星组成,运行在1200公里的轨道上。 每颗卫星都能够提供至少每秒8千兆位的吞吐量,以使用其高吞吐量的Ku频段有效载荷为家庭和移动平台提供互联网接入。该卫星仍在工作。
2D Orbit Map
3D Orbit Map
Orbit Altitude Analysis Chart
Orbit Inclination Analysis Chart
Orbit Comprehensive Analysis Chart
View Comprehensive Chart
Miss Distance Evolution Trend with All Objects
Collision Probability Evolution Trend with All Objects